Regional Weather Roundup
Issued by NWS

Home | Current Version | Previous Version | Graphics & Text | Print | Product List | Glossary On
Versions: 1 2 3 4 5 6 7 8 9 10 11 12 13 14 15 16 17 18 19 20 21 22 23 24 25 26 27 28 29 30 31 32 33 34 35 36 37 38 39 40 41 42 43 44 45 46 47 48 49 50
000
ASUS45 KABQ 191701
RWRNM
NEW MEXICO REGIONAL WEATHER ROUNDUP
NATIONAL WEATHER SERVICE ALBUQUERQUE NM
1000 AM MST THU JAN 19 2017

NOTE: "FAIR" MEANS FEW OR NO CLOUDS BELOW 12,000 FEET AGL WITH NO
       SIGNIFICANT WEATHER OR OBSTRUCTIONS TO VISION.

      THIS PRODUCT IS RELEASED AS TWO VERSIONS.  ONE VERSION NEAR
      THE TOP OF THE HOUR CONTAINING PRELIMINARY DATA FROM ALBUQUERQUE
      AND OTHER STATIONS.  A FINAL VERSION WITH ADDITIONAL DATA IS
      ISSUED ABOUT 10 MINUTES AFTER THE HOUR.

NMZ501-503-504-510>518-191800-
NORTHWEST PLATEAU/NORTHCENTRAL MOUNTAINS

CITY           SKY/WX    TMP DP  RH WIND       PRES   REMARKS
FARMINGTON     FAIR      32  27  81 E8        29.93S WCI  25
LOS ALAMOS     FAIR      31  26  81 CALM      29.91R
SANTA FE       FAIR      39  26  59 N16       29.89R WCI  30
TAOS           CLOUDY    27  18  69 CALM      29.92S
ANGEL FIRE     PTSUNNY   27  20  75 N5        29.85S WCI  22

$$
NMZ402-403-502-505>509-191800-
WESTCENTRAL MOUNTAINS/SOUTHWEST MOUNTAINS

CITY           SKY/WX    TMP DP  RH WIND       PRES   REMARKS
GALLUP         PTSUNNY   36  30  79 SW15      29.96S WCI  27
GRANTS         FAIR      40  26  58 NW16G23   29.96S WCI  31
SILVER CITY    FAIR      42  32  68 W12       30.02S

$$
NMZ407-409-411-412-191800-
SOUTHERN DESERTS

CITY           SKY/WX    TMP DP  RH WIND       PRES   REMARKS
DEMING         FAIR      45  36  70 SW10      30.02R
LAS CRUCES     FAIR      45  35  67 W12       30.01R
ALAMOGORDO     FAIR      48  32  53 W8        29.97R
T OR C         FAIR      47  26  44 W9        29.94S

$$
NMZ519>523-191800-
CENTRAL VALLEYS/CENTRAL HIGHLANDS

CITY           SKY/WX    TMP DP  RH WIND       PRES   REMARKS
ALBUQUERQUE    PTSUNNY   39  31  72 NW5       29.95S
DOUBLE EAGLE   MOSUNNY   37  30  75 SE3       29.94S
MORIARTY ARPT  FAIR      41  26  54 NW29      29.89R
CLINES CORNERS FAIR      35  26  69 W43G55    29.79R WCI  20
BELEN          FAIR      42  29  58 SW6       29.95S
SOCORRO        FAIR      44  29  56 CALM      29.94S

$$
NMZ524>526-539-540-191800-
SOUTHCENTRAL MOUNTAINS

CITY           SKY/WX    TMP DP  RH WIND       PRES   REMARKS
RUIDOSO        NOT AVBL

$$
NMZ527>531-191800-
NORTHEAST HIGHLANDS/NORTHEAST PLAINS

CITY           SKY/WX    TMP DP  RH WIND       PRES   REMARKS
LAS VEGAS      FAIR      42  18  37 N3        29.73S
RATON          FAIR      34  24  67 NE8       29.67R WCI  27
CLAYTON        NOT AVBL

$$
NMZ532>537-191800-
EASTCENTRAL PLAINS

CITY           SKY/WX    TMP DP  RH WIND       PRES   REMARKS
TUCUMCARI      FAIR      51  29  42 W10       29.65S
CANNON AFB     FAIR      48  30  49 W23G35    29.68S
CLOVIS AIRPORT FAIR      50  30  46 W24G30    29.67S

$$
NMZ028-029-538-191800-
SOUTHEAST PLAINS

CITY           SKY/WX    TMP DP  RH WIND       PRES   REMARKS
ROSWELL        FAIR      54  31  41 SW8       29.79S
ARTESIA        FAIR      57  32  38 W23       29.80R
CARLSBAD       FAIR      57  31  37 W37G45    29.78R
HOBBS          SUNNY     54  32  43 SW25G32   29.80S


$$




USA.gov is the U.S. government's official web portal to all federal, state and local government web resources and services.